JBU2097 KATL-KFLL

Flight info

Callsign JBU2097
Flight time 1h 23m
Altitude 33000
Route SMLTZ3 WALET ZPLEN TEEKY4
Aircraft A320/M-SDE3FGHIRWY/LB1

Departure

Time 2026-05-07 16:00
Airport Hartsfield Jackson Atlanta International Airport (KATL)

Arrival

Time 2026-05-07 17:24
Airport Fort Lauderdale Hollywood International Airport (KFLL)
Time Latitude Longitude Altitude Speed Heading
2026-05-07 15:20 33.63743 -84.42893 1007 ft 0 kts 269°
2026-05-07 15:49 33.63743 -84.42891 997 ft 2 kts 269°
2026-05-07 15:49 33.63743 -84.42861 1006 ft 4 kts 269°
2026-05-07 15:50 33.63746 -84.42829 1006 ft 4 kts 248°
2026-05-07 15:50 33.63761 -84.42806 1006 ft 4 kts 191°
2026-05-07 15:50 33.63766 -84.42805 1006 ft 1 kts 182°
2026-05-07 15:53 33.63767 -84.42805 1006 ft 0 kts 182°
2026-05-07 15:54 33.63765 -84.42805 1006 ft 0 kts 182°
2026-05-07 15:54 33.63763 -84.42805 1006 ft 2 kts 182°
2026-05-07 15:54 33.63722 -84.42806 1006 ft 8 kts 180°
2026-05-07 15:54 33.63669 -84.42783 1006 ft 9 kts 130°
2026-05-07 15:55 33.63655 -84.42704 1007 ft 11 kts 93°
2026-05-07 15:55 33.63654 -84.42609 1007 ft 12 kts 90°
2026-05-07 15:55 33.63655 -84.42500 1007 ft 13 kts 90°
2026-05-07 15:55 33.63655 -84.42383 1007 ft 15 kts 90°
2026-05-07 15:56 33.63655 -84.42255 1007 ft 15 kts 90°
2026-05-07 15:56 33.63655 -84.42121 1007 ft 16 kts 90°
2026-05-07 15:56 33.63654 -84.41981 1006 ft 18 kts 90°
2026-05-07 15:56 33.63655 -84.41846 1006 ft 16 kts 89°
2026-05-07 15:57 33.63656 -84.41703 1006 ft 18 kts 90°
2026-05-07 15:57 33.63655 -84.41546 1006 ft 20 kts 90°
2026-05-07 15:57 33.63655 -84.41413 1006 ft 15 kts 89°
2026-05-07 15:57 33.63655 -84.41282 1006 ft 17 kts 90°
2026-05-07 15:58 33.63654 -84.41156 1006 ft 14 kts 90°
2026-05-07 15:58 33.63654 -84.41028 1006 ft 16 kts 89°
2026-05-07 15:58 33.63631 -84.40914 1006 ft 14 kts 144°
2026-05-07 15:58 33.63541 -84.40907 1007 ft 12 kts 184°
2026-05-07 15:59 33.63474 -84.40921 1007 ft 8 kts 224°
2026-05-07 15:59 33.63470 -84.40957 1007 ft 1 kts 272°
2026-05-07 15:59 33.63471 -84.41063 1006 ft 44 kts 270°
2026-05-07 15:59 33.63472 -84.41691 1005 ft 105 kts 270°
2026-05-07 16:00 33.63471 -84.42762 1007 ft 150 kts 270°
2026-05-07 16:00 33.63475 -84.44134 1352 ft 167 kts 271°
2026-05-07 16:00 33.63474 -84.45534 2099 ft 167 kts 272°
2026-05-07 16:00 33.63469 -84.46970 2628 ft 183 kts 273°
2026-05-07 16:01 33.63468 -84.48604 2991 ft 207 kts 271°
2026-05-07 16:01 33.63466 -84.50433 3410 ft 231 kts 270°
2026-05-07 16:01 33.63461 -84.52442 4022 ft 245 kts 270°
2026-05-07 16:01 33.63457 -84.54470 5077 ft 244 kts 269°
2026-05-07 16:02 33.63453 -84.56516 6173 ft 246 kts 270°
2026-05-07 16:02 33.63451 -84.58548 7166 ft 246 kts 269°
2026-05-07 16:02 33.63451 -84.60605 8064 ft 248 kts 269°
2026-05-07 16:02 33.63390 -84.62671 8948 ft 249 kts 262°
2026-05-07 16:03 33.62897 -84.64675 9780 ft 253 kts 247°
2026-05-07 16:03 33.61914 -84.66448 10530 ft 260 kts 232°
2026-05-07 16:03 33.60485 -84.67838 11283 ft 271 kts 218°
2026-05-07 16:03 33.58792 -84.68882 12056 ft 279 kts 209°
2026-05-07 16:04 33.56855 -84.69397 12814 ft 294 kts 193°
2026-05-07 16:04 33.54761 -84.69230 13529 ft 310 kts 181°
2026-05-07 16:04 33.52617 -84.68821 14173 ft 313 kts 182°
2026-05-07 16:04 33.50460 -84.68408 14831 ft 316 kts 182°
2026-05-07 16:05 33.48274 -84.67990 15503 ft 319 kts 183°
2026-05-07 16:05 33.46071 -84.67573 16128 ft 322 kts 184°
2026-05-07 16:05 33.43849 -84.67044 16734 ft 335 kts 175°
2026-05-07 16:05 33.41643 -84.65903 17307 ft 357 kts 161°
2026-05-07 16:06 33.39569 -84.64032 17453 ft 392 kts 145°
2026-05-07 16:06 33.37579 -84.61686 17597 ft 411 kts 144°
2026-05-07 16:06 33.35525 -84.59239 17973 ft 420 kts 144°
2026-05-07 16:06 33.33447 -84.56751 18454 ft 426 kts 144°
2026-05-07 16:07 33.31345 -84.54235 18926 ft 429 kts 144°
2026-05-07 16:07 33.29225 -84.51708 19438 ft 432 kts 144°
2026-05-07 16:07 33.27078 -84.49166 19974 ft 435 kts 144°
2026-05-07 16:07 33.24920 -84.46627 20557 ft 438 kts 144°
2026-05-07 16:08 33.22737 -84.44067 21105 ft 440 kts 144°
2026-05-07 16:08 33.20579 -84.41540 21653 ft 442 kts 144°
2026-05-07 16:08 33.18376 -84.38958 22183 ft 445 kts 144°
2026-05-07 16:08 33.16161 -84.36362 22733 ft 449 kts 144°
2026-05-07 16:09 33.13933 -84.33745 23281 ft 451 kts 144°
2026-05-07 16:09 33.11685 -84.31105 23758 ft 454 kts 144°
2026-05-07 16:09 33.09437 -84.28465 24172 ft 456 kts 144°
2026-05-07 16:09 33.07161 -84.25794 24579 ft 459 kts 144°
2026-05-07 16:10 33.04871 -84.23116 24984 ft 461 kts 144°
2026-05-07 16:10 33.02556 -84.20450 25395 ft 461 kts 147°
2026-05-07 16:10 33.00046 -84.18141 25788 ft 453 kts 156°
2026-05-07 16:10 32.97323 -84.16332 26167 ft 444 kts 165°
2026-05-07 16:11 32.94467 -84.15019 26546 ft 438 kts 171°
2026-05-07 16:11 32.91577 -84.13837 26915 ft 441 kts 171°
2026-05-07 16:11 32.88673 -84.12651 27281 ft 444 kts 171°
2026-05-07 16:11 32.85738 -84.11453 27671 ft 447 kts 171°
2026-05-07 16:12 32.82790 -84.10242 28026 ft 449 kts 170°
2026-05-07 16:12 32.79864 -84.09040 28317 ft 452 kts 170°
2026-05-07 16:12 32.76875 -84.07816 28658 ft 455 kts 170°
2026-05-07 16:12 32.73865 -84.06580 29008 ft 458 kts 170°
2026-05-07 16:13 32.70850 -84.05338 29352 ft 460 kts 170°
2026-05-07 16:13 32.67820 -84.04094 29712 ft 463 kts 169°
2026-05-07 16:13 32.64763 -84.02839 30036 ft 466 kts 169°
2026-05-07 16:13 32.61687 -84.01577 30338 ft 468 kts 169°
2026-05-07 16:14 32.58603 -84.00310 30663 ft 469 kts 169°
2026-05-07 16:14 32.55517 -83.99043 30991 ft 470 kts 169°
2026-05-07 16:14 32.52415 -83.97773 31313 ft 472 kts 169°
2026-05-07 16:14 32.49305 -83.96504 31626 ft 473 kts 169°
2026-05-07 16:15 32.46238 -83.95254 32050 ft 471 kts 169°
2026-05-07 16:15 32.43154 -83.93997 32497 ft 469 kts 169°
2026-05-07 16:15 32.40077 -83.92742 32864 ft 468 kts 169°
2026-05-07 16:16 32.33984 -83.90292 32976 ft 452 kts 171°
2026-05-07 16:16 32.28024 -83.88135 32974 ft 446 kts 172°
2026-05-07 16:17 32.23067 -83.86434 32975 ft 446 kts 172°
2026-05-07 16:17 32.17056 -83.84341 32974 ft 448 kts 172°
2026-05-07 16:18 32.11076 -83.82204 32981 ft 450 kts 171°
2026-05-07 16:18 32.05129 -83.80061 32980 ft 450 kts 171°
2026-05-07 16:19 31.99128 -83.77907 32973 ft 451 kts 171°
2026-05-07 16:19 31.93122 -83.75769 32980 ft 451 kts 171°
2026-05-07 16:20 31.87098 -83.73633 32979 ft 452 kts 171°
2026-05-07 16:20 31.81070 -83.71489 32986 ft 453 kts 171°
2026-05-07 16:21 31.75017 -83.69344 32991 ft 454 kts 171°
2026-05-07 16:21 31.68942 -83.67192 33001 ft 455 kts 171°
2026-05-07 16:22 31.62881 -83.64931 33001 ft 458 kts 169°
2026-05-07 16:22 31.56863 -83.62572 33027 ft 459 kts 169°
2026-05-07 16:23 31.50799 -83.60210 33037 ft 460 kts 169°
2026-05-07 16:23 31.44704 -83.57879 33037 ft 460 kts 170°
2026-05-07 16:24 31.38611 -83.55558 33046 ft 461 kts 169°
2026-05-07 16:24 31.32433 -83.53215 33427 ft 470 kts 169°
2026-05-07 16:24 31.29324 -83.52030 33814 ft 471 kts 169°
2026-05-07 16:25 31.26216 -83.50841 34201 ft 470 kts 169°
2026-05-07 16:25 31.23104 -83.49648 34559 ft 469 kts 169°
2026-05-07 16:25 31.19995 -83.48459 34906 ft 469 kts 170°
2026-05-07 16:25 31.16896 -83.47278 35034 ft 469 kts 170°
2026-05-07 16:26 31.13794 -83.46095 35051 ft 469 kts 170°
2026-05-07 16:26 31.07591 -83.43736 35052 ft 469 kts 170°
2026-05-07 16:27 31.01384 -83.41389 35046 ft 469 kts 170°
2026-05-07 16:27 30.95176 -83.39048 35046 ft 469 kts 170°
2026-05-07 16:28 30.88998 -83.36711 35046 ft 470 kts 170°
2026-05-07 16:28 30.82783 -83.34351 35048 ft 470 kts 170°
2026-05-07 16:29 30.76557 -83.31997 35037 ft 471 kts 171°
2026-05-07 16:29 30.70340 -83.29549 35050 ft 478 kts 164°
2026-05-07 16:30 30.64263 -83.26295 35058 ft 481 kts 163°
2026-05-07 16:30 30.58188 -83.23008 35064 ft 482 kts 163°
2026-05-07 16:31 30.52104 -83.19727 35069 ft 482 kts 163°
2026-05-07 16:31 30.46048 -83.16480 35074 ft 482 kts 163°
2026-05-07 16:32 30.39960 -83.13224 35073 ft 482 kts 163°
2026-05-07 16:32 30.33862 -83.09957 35082 ft 482 kts 163°
2026-05-07 16:33 30.27768 -83.06697 35080 ft 482 kts 163°
2026-05-07 16:33 30.21667 -83.03439 35080 ft 482 kts 163°
2026-05-07 16:34 30.15578 -83.00195 35076 ft 483 kts 162°
2026-05-07 16:34 30.09471 -82.96941 35077 ft 483 kts 162°
2026-05-07 16:35 30.03378 -82.93703 35072 ft 482 kts 162°
2026-05-07 16:35 30.00328 -82.92086 34790 ft 478 kts 162°
2026-05-07 16:35 29.97326 -82.90491 34361 ft 475 kts 162°
2026-05-07 16:35 29.94335 -82.88903 33811 ft 474 kts 162°
2026-05-07 16:36 29.91334 -82.87309 33250 ft 473 kts 162°
2026-05-07 16:36 29.88346 -82.85725 33034 ft 474 kts 162°
2026-05-07 16:36 29.85337 -82.84135 33077 ft 475 kts 162°
2026-05-07 16:37 29.79322 -82.80954 33074 ft 476 kts 162°
2026-05-07 16:37 29.73290 -82.77766 33071 ft 476 kts 162°
2026-05-07 16:38 29.67270 -82.74579 33069 ft 476 kts 162°
2026-05-07 16:38 29.61290 -82.71427 33067 ft 476 kts 162°
2026-05-07 16:39 29.55259 -82.68257 33067 ft 476 kts 162°
2026-05-07 16:39 29.49230 -82.65084 33072 ft 477 kts 162°
2026-05-07 16:40 29.43203 -82.61919 33072 ft 477 kts 162°
2026-05-07 16:40 29.37165 -82.58758 33071 ft 477 kts 162°
2026-05-07 16:41 29.31128 -82.55596 33074 ft 477 kts 161°
2026-05-07 16:41 29.24958 -82.53152 33072 ft 463 kts 177°
2026-05-07 16:42 29.18645 -82.52723 33071 ft 451 kts 188°
2026-05-07 16:42 29.12363 -82.52731 33077 ft 452 kts 187°
2026-05-07 16:43 29.06119 -82.52713 33089 ft 452 kts 187°
2026-05-07 16:43 28.99822 -82.52704 33088 ft 452 kts 187°
2026-05-07 16:44 28.93531 -82.52704 33087 ft 452 kts 187°
2026-05-07 16:44 28.87233 -82.52703 33091 ft 452 kts 187°
2026-05-07 16:45 28.80941 -82.52699 33092 ft 452 kts 187°
2026-05-07 16:45 28.74645 -82.52693 33089 ft 452 kts 187°
2026-05-07 16:46 28.68335 -82.52684 33088 ft 453 kts 187°
2026-05-07 16:46 28.62040 -82.52679 33095 ft 453 kts 187°
2026-05-07 16:47 28.55743 -82.52681 33101 ft 453 kts 187°
2026-05-07 16:47 28.49470 -82.52682 33099 ft 453 kts 187°
2026-05-07 16:48 28.43177 -82.52681 33100 ft 453 kts 187°
2026-05-07 16:48 28.36868 -82.52675 33099 ft 453 kts 187°
2026-05-07 16:49 28.30558 -82.52675 33096 ft 453 kts 187°
2026-05-07 16:49 28.24242 -82.52675 33093 ft 453 kts 186°
2026-05-07 16:50 28.17934 -82.52669 33104 ft 453 kts 186°
2026-05-07 16:50 28.11621 -82.52666 33106 ft 453 kts 186°
2026-05-07 16:51 28.05349 -82.52668 33113 ft 453 kts 186°
2026-05-07 16:51 27.99024 -82.52224 33112 ft 463 kts 174°
2026-05-07 16:52 27.92792 -82.50124 33101 ft 468 kts 168°
2026-05-07 16:52 27.86582 -82.47907 33099 ft 468 kts 168°
2026-05-07 16:53 27.80359 -82.45710 33100 ft 468 kts 168°
2026-05-07 16:53 27.74144 -82.43515 33103 ft 468 kts 168°
2026-05-07 16:54 27.67922 -82.41317 33097 ft 468 kts 168°
2026-05-07 16:54 27.61704 -82.39120 33094 ft 469 kts 168°
2026-05-07 16:55 27.55479 -82.36919 33104 ft 469 kts 168°
2026-05-07 16:55 27.49255 -82.34726 33114 ft 469 kts 168°
2026-05-07 16:56 27.43023 -82.32537 33111 ft 469 kts 167°
2026-05-07 16:56 27.33965 -82.28263 33107 ft 477 kts 154°
2026-05-07 16:57 27.28198 -82.24584 33103 ft 476 kts 154°
2026-05-07 16:57 27.22430 -82.20946 32941 ft 470 kts 154°
2026-05-07 16:58 27.19638 -82.19180 32554 ft 464 kts 154°
2026-05-07 16:58 27.16836 -82.17405 32141 ft 460 kts 154°
2026-05-07 16:58 27.14056 -82.15641 31725 ft 457 kts 154°
2026-05-07 16:58 27.11296 -82.13890 31315 ft 454 kts 154°
2026-05-07 16:59 27.08552 -82.12150 31090 ft 453 kts 154°
2026-05-07 16:59 27.05802 -82.10415 31114 ft 453 kts 154°
2026-05-07 16:59 27.00297 -82.06944 31116 ft 454 kts 154°
2026-05-07 17:00 26.95056 -82.02972 30829 ft 458 kts 139°
2026-05-07 17:00 26.92832 -82.00418 30329 ft 459 kts 134°
2026-05-07 17:00 26.90641 -81.97807 29742 ft 459 kts 134°
2026-05-07 17:01 26.88451 -81.95207 29237 ft 457 kts 134°
2026-05-07 17:01 26.86274 -81.92630 28696 ft 455 kts 134°
2026-05-07 17:01 26.84095 -81.90058 28174 ft 454 kts 134°
2026-05-07 17:01 26.81922 -81.87496 27642 ft 453 kts 134°
2026-05-07 17:02 26.80485 -81.85805 27295 ft 452 kts 134°
2026-05-07 17:02 26.77646 -81.82465 26589 ft 451 kts 134°
2026-05-07 17:02 26.75491 -81.79930 26251 ft 446 kts 134°
2026-05-07 17:02 26.74087 -81.78287 26169 ft 438 kts 134°
2026-05-07 17:03 26.72008 -81.75866 25681 ft 427 kts 134°
2026-05-07 17:03 26.69957 -81.73487 25062 ft 421 kts 134°
2026-05-07 17:03 26.67929 -81.71140 24428 ft 416 kts 134°
2026-05-07 17:03 26.65932 -81.68832 23829 ft 410 kts 134°
2026-05-07 17:04 26.63962 -81.66549 23282 ft 404 kts 134°
2026-05-07 17:04 26.62169 -81.64164 22819 ft 400 kts 126°
2026-05-07 17:04 26.60513 -81.61680 22350 ft 397 kts 126°
2026-05-07 17:04 26.58854 -81.59206 21897 ft 397 kts 126°
2026-05-07 17:05 26.57194 -81.56744 21496 ft 394 kts 126°
2026-05-07 17:05 26.55545 -81.54301 21029 ft 394 kts 126°
2026-05-07 17:05 26.53912 -81.51881 20730 ft 387 kts 126°
2026-05-07 17:05 26.52301 -81.49488 20161 ft 384 kts 126°
2026-05-07 17:06 26.50700 -81.47107 19680 ft 380 kts 125°
2026-05-07 17:06 26.49142 -81.44791 19209 ft 376 kts 125°
2026-05-07 17:06 26.47578 -81.42470 18774 ft 371 kts 125°
2026-05-07 17:06 26.46035 -81.40188 18339 ft 367 kts 125°
2026-05-07 17:07 26.44501 -81.37924 17876 ft 363 kts 125°
2026-05-07 17:07 26.42987 -81.35685 17459 ft 360 kts 125°
2026-05-07 17:07 26.41480 -81.33455 16982 ft 361 kts 124°
2026-05-07 17:07 26.39944 -81.31256 16622 ft 358 kts 126°
2026-05-07 17:08 26.38363 -81.29110 16254 ft 355 kts 127°
2026-05-07 17:08 26.36767 -81.27006 15791 ft 353 kts 128°
2026-05-07 17:08 26.35187 -81.24940 15378 ft 348 kts 128°
2026-05-07 17:08 26.33631 -81.22898 14931 ft 343 kts 127°
2026-05-07 17:09 26.32099 -81.20875 14531 ft 338 kts 127°
2026-05-07 17:09 26.30588 -81.18868 14149 ft 338 kts 127°
2026-05-07 17:09 26.29079 -81.16855 13802 ft 337 kts 127°
2026-05-07 17:09 26.27585 -81.14868 13398 ft 335 kts 127°
2026-05-07 17:10 26.26090 -81.12892 13066 ft 331 kts 127°
2026-05-07 17:10 26.24600 -81.10930 12637 ft 329 kts 128°
2026-05-07 17:10 26.23131 -81.08999 12194 ft 325 kts 128°
2026-05-07 17:10 26.21685 -81.07098 11815 ft 319 kts 128°
2026-05-07 17:11 26.20254 -81.05219 11442 ft 317 kts 128°
2026-05-07 17:11 26.18846 -81.03372 11082 ft 316 kts 128°
2026-05-07 17:11 26.17425 -81.01504 10727 ft 316 kts 128°
2026-05-07 17:11 26.16016 -80.99646 10453 ft 311 kts 127°
2026-05-07 17:12 26.14886 -80.97629 10188 ft 305 kts 112°
2026-05-07 17:12 26.14275 -80.95394 9837 ft 301 kts 98°
2026-05-07 17:12 26.13901 -80.93110 9348 ft 299 kts 98°
2026-05-07 17:12 26.13526 -80.90831 8887 ft 296 kts 98°
2026-05-07 17:13 26.13159 -80.88595 8494 ft 293 kts 99°
2026-05-07 17:13 26.12790 -80.86363 8137 ft 293 kts 99°
2026-05-07 17:13 26.12422 -80.84147 7838 ft 291 kts 99°
2026-05-07 17:13 26.12052 -80.81932 7527 ft 289 kts 99°
2026-05-07 17:14 26.11685 -80.79743 7163 ft 287 kts 99°
2026-05-07 17:14 26.11322 -80.77567 6819 ft 283 kts 99°
2026-05-07 17:14 26.10964 -80.75438 6581 ft 279 kts 99°
2026-05-07 17:14 26.10610 -80.73331 6344 ft 275 kts 99°
2026-05-07 17:15 26.10259 -80.71239 6225 ft 276 kts 99°
2026-05-07 17:15 26.09906 -80.69140 6100 ft 276 kts 100°
2026-05-07 17:15 26.09553 -80.67045 5974 ft 275 kts 100°
2026-05-07 17:15 26.09205 -80.64977 5854 ft 275 kts 100°
2026-05-07 17:16 26.08847 -80.62858 5745 ft 275 kts 100°
2026-05-07 17:16 26.08498 -80.60797 5694 ft 275 kts 100°
2026-05-07 17:16 26.08142 -80.58685 5563 ft 274 kts 100°
2026-05-07 17:16 26.07794 -80.56631 5441 ft 274 kts 101°
2026-05-07 17:17 26.07441 -80.54547 5291 ft 273 kts 101°
2026-05-07 17:17 26.07075 -80.52478 5150 ft 273 kts 103°
2026-05-07 17:17 26.06763 -80.50474 5041 ft 269 kts 95°
2026-05-07 17:17 26.06710 -80.48435 4995 ft 257 kts 90°
2026-05-07 17:18 26.06724 -80.46510 5003 ft 242 kts 90°
2026-05-07 17:18 26.06724 -80.44675 4841 ft 235 kts 90°
2026-05-07 17:18 26.06717 -80.42862 4555 ft 234 kts 91°
2026-05-07 17:18 26.06710 -80.41087 4264 ft 229 kts 91°
2026-05-07 17:19 26.06703 -80.39330 3969 ft 226 kts 91°
2026-05-07 17:19 26.06696 -80.37588 3682 ft 225 kts 91°
2026-05-07 17:19 26.06688 -80.35854 3398 ft 222 kts 91°
2026-05-07 17:19 26.06681 -80.34176 3106 ft 211 kts 91°
2026-05-07 17:20 26.06674 -80.32576 2839 ft 203 kts 91°
2026-05-07 17:20 26.06667 -80.31049 2616 ft 192 kts 91°
2026-05-07 17:20 26.06661 -80.29599 2358 ft 182 kts 91°
2026-05-07 17:20 26.06654 -80.28227 2099 ft 172 kts 91°
2026-05-07 17:21 26.06647 -80.26921 1926 ft 166 kts 92°
2026-05-07 17:21 26.06641 -80.25671 1696 ft 154 kts 90°
2026-05-07 17:21 26.06636 -80.24534 1504 ft 143 kts 91°
2026-05-07 17:21 26.06629 -80.23452 1319 ft 139 kts 91°
2026-05-07 17:22 26.06629 -80.22385 1215 ft 138 kts 90°
2026-05-07 17:22 26.06625 -80.21319 1021 ft 138 kts 91°
2026-05-07 17:22 26.06617 -80.20275 855 ft 136 kts 90°
2026-05-07 17:22 26.06610 -80.19230 679 ft 135 kts 92°
2026-05-07 17:23 26.06604 -80.18178 468 ft 136 kts 90°
2026-05-07 17:23 26.06603 -80.17138 272 ft 133 kts 91°
2026-05-07 17:23 26.06593 -80.16116 103 ft 132 kts 92°
2026-05-07 17:23 26.06585 -80.15134 24 ft 113 kts 91°
2026-05-07 17:24 26.06580 -80.14454 45 ft 63 kts 90°
2026-05-07 17:24 26.06614 -80.14248 54 ft 9 kts 49°
2026-05-07 17:24 26.06642 -80.14237 54 ft 11 kts 355°
2026-05-07 17:24 26.06686 -80.14319 47 ft 14 kts 270°
2026-05-07 17:25 26.06677 -80.14441 45 ft 18 kts 269°
2026-05-07 17:25 26.06676 -80.14574 41 ft 18 kts 270°
2026-05-07 17:25 26.06676 -80.14711 29 ft 17 kts 269°
2026-05-07 17:25 26.06680 -80.14837 20 ft 15 kts 276°
2026-05-07 17:26 26.06727 -80.14921 17 ft 15 kts 345°
2026-05-07 17:26 26.06767 -80.14822 15 ft 17 kts 92°
2026-05-07 17:26 26.06766 -80.14718 15 ft 9 kts 90°
2026-05-07 17:26 26.06765 -80.14645 15 ft 11 kts 90°
2026-05-07 17:27 26.06799 -80.14582 16 ft 12 kts
2026-05-07 17:27 26.06867 -80.14641 16 ft 13 kts 316°
2026-05-07 17:27 26.06923 -80.14693 16 ft 7 kts 322°
2026-05-07 17:27 26.06974 -80.14702 16 ft 9 kts 21°
2026-05-07 17:28 26.07018 -80.14680 16 ft 3 kts 17°
2026-05-07 17:28 26.07042 -80.14672 16 ft 2 kts 17°
2026-05-07 17:28 26.07050 -80.14669 16 ft 0 kts 17°